2021-101A (49390 NORAD) Tracking and Keplerian Element Data

This shows tracking and keplerian element data for the satellite.

Feedback or suggestion? Click here.




ElementValue
Catalog49390
Name2021-101A
Epoch Orbit1083
Epoch Day16.24343124
Epoch Year2022
RAAN338.6786
Inclination34.9985
Eccentricity0.0003151
Argument of Perigee273.7897
Mean Anonmoly186.9591
Mean Motion15.23031308
Decay Rate3.622E-05
L11 49390U 21101A 22016.24343124 .00003622 00000+0 15166-3 0 9998
L22 49390 34.9985 338.6786 0003151 273.7897 186.9591 15.23031308 10836

Live tracking and technical data element details for 2021-101A (NORAD 49390). 2021-101A can be tracked NOW for your location showing map with azimuth and elevation plus other details from your city location.

Track the satellite on the map from your city or location and see movement details for azimuth, elevation, latitude, longitude, range, height, and movement on the map or in text.







IsCatalogInMostPopularTable: catalog: 49390, numindb: 5
Update: records affected: 1



GetName: 49390 2021-101A

Hit Count: updated at: Thu, 20 Jan 2022 17:49:04 GMT